www.pogodaiklimat.ru

Погода и климат >> Архив погоды >> Боливия >> San Jose De Chiquitos


ПОГОДА в San Jose De Chiquitos

  • Прогноз погоды в San Jose De Chiquitos
  • Монитор погоды в San Jose De Chiquitos
  • Климат города

АРХИВ ПОГОДЫ в San Jose De Chiquitos

Время (UTC), дата Ветер
(напр.,м/с)
 
Видим.   Явления Облачность Т
(С)
Тd
(С)
f
(%)
Тe
(С)
Тes
(С)
Комфортность P
(гПа)
Po
(гПа)
Тmin
(С)
Tmax
(С)
R
(мм)
R24
(мм)
S
(см)
12 14.04 Ю 3 20 км 10/10 500 м
[Sc]
+18.0 +15.5 85 +18 +18 1022.8 989.3 +17.3 1
15 14.04 Ю 5 20 км 10/10 360 м
[Sc]
+19.8 +15.8 78 +22 +22 комфорт 1024.8 991.3
18 14.04 Ю 3 20 км 1/1 500 м
[Cu hum]
+25.4 +17.4 61 +29 +39 душно 1021.5 988.0
21 14.04 Ю 3 20 км 1/1 500 м
[Sc]
+24.8 +17.7 65 +29 +30 душно 1019.7 986.3 +26.6
12 15.04 Ю 5 20 км 10/10 450 м
[Sc]
+20.2 +16.9 81 +23 +23 комфорт 1024.3 990.8 +19.1
15 15.04 Ю 7 20 км 10/10 500 м
[Sc]
+22.2 +17.4 74 +27 +27 душно 1025.8 992.2
18 15.04 Ю 3 20 км 10/10 500 м
[Sc]
+24.0 +18.4 71 +28 +28 душно 1023.6 990.1
12 16.04 Ю 3 20 км 10/10 400 м
[Sc]
+23.0 +19.8 82 +30 +30 очень
душно
1022.1 988.6 +21.2
15 16.04 Ю 5 20 км 6/6 500 м
[Sc]
+28.0 +21.0 66 +35 +38 очень
душно
1022.5 989.0
18 16.04 ЮВ 3 20 км 8/8 500 м
[Cu med, cong]
+29.5 +20.6 59 +37 +39 очень
душно
1019.6 986.2
21 16.04 штиль 0 20 км 8/8 500 м
[Cb cap]
+25.8 +20.9 74 +32 +32 очень
душно
1017.6 984.2 +31.9
12 17.04 штиль 0 20 км 1/0 2000 м
[Ac trans]
+22.5 +20.0 86 +29 +33 очень
душно
1019.3 985.9 +16.6 0.8
15 17.04 штиль 0 20 км 3/3 600 м
[Cu med, cong]
+30.2 +20.4 56 +37 +52 опасность
солнечного
удара
1019.6 986.2
18 17.04 Ю 3 20 км гроза без осадков 6/6 500 м
[Cb cap]
+33.6 +19.8 44 +39 +44 очень
душно
1017.1 983.8
21 17.04 штиль 0 20 км гроза без осадков 8/8 500 м
[Cb cap]
+24.4 +19.8 76 +30 +30 очень
душно
1016.4 983.1 +34.0
12 18.04 штиль 0 20 км 6/6 600 м
[Sc]
+21.0 +19.2 89 +25 +27 комфорт 1020.8 987.4 +17.5 0.5
15 18.04 штиль 0 20 км 3/3 600 м
[Cu med, cong]
+29.3 +21.7 64 +38 +52 опасность
солнечного
удара
1020.8 987.4
18 18.04 С 3 20 км 1/1 600 м
[Cu med, cong]
+33.6 +19.6 44 +39 +49 очень
душно
1018.1 984.7
21 18.04 штиль 0 20 км 1/1 600 м
[Cu med, cong]
+33.0 +17.8 40 +37 +38 очень
душно
1015.8 982.5 +34.5
12 19.04 штиль 0 20 км 10/10 300 м
[Sc]
+23.2 +21.4 90 +31 +31 очень
душно
1019.9 986.5 +20.4
15 19.04 С 3 20 км 6/6 500 м
[Cu med, cong]
+31.0 +22.3 60 +40 +46 очень
душно
1020.1 986.7
18 19.04 С 5 20 км гроза без осадков 8/8 500 м
[Cb cap]
+31.8 +20.7 52 +39 +40 очень
душно
1016.5 983.2
21 19.04 штиль 0 20 км {гроза, дождь} 8/6 500 м
[Cb cap Ac trans]
+22.0 +20.6 92 +28 +28 душно 1017.3 984.0 +32.2
12 20.04 штиль 0 20 км 1/1 450 м
[Sc]
+22.8 +19.9 84 +29 +33 очень
душно
1018.9 985.5 +19.5 22
15 20.04 С 3 20 км 4/4 500 м
[Cu med, cong]
+29.0 +22.7 69 +38 +47 очень
душно
1018.9 985.5
21 20.04 С 3 20 км 3/3 500 м
[Cu med, cong]
+28.0 +23.0 74 +37 +38 очень
душно
1013.9 980.6 +29.8

 

Местоположение метеостанции San Jose De Chiquitos (Боливия): широта -17.80 долгота -60.73 высота над уровнем моря 284 м.

В архиве по умолчанию представлена погода в San Jose De Chiquitos за последнюю неделю. Архивные данные за месяц целиком и за предыдущие месяцы, начиная с января 2011 года, Вы можете получить, выбрав интересующий диапазон дат из раскрывающегося списка и нажав кнопку "Ввод!".


*Определитесь, кто Вы:
робот инопланетянин человек

Внимание! Время в таблицах - всемирное. Для получения местного времени необходимо прибавить поправку, которая в San Jose De Chiquitos равна -4 ч.

Смотрите также архив погоды в соседних городах и на ближайших метеорологических станциях:

Погода в Robore (Боливия) (117 км)
Погода в San Ignacio De Velasco (Боливия) (160 км)
Погода в Concepcion (Боливия) (229 км)
Погода в San Javier (Боливия) (251 км)
Погода в Viru-Viru (Боливия) (255 км)
Погода в Santa Cruz (Боливия) (259 км)
Погода в San Matias (Боливия) (299 км)
Погода в Vila Bela da S Trind (Бразилия) (317 км)
Погода в Pontes E Lacerda (Бразилия) (320 км)
Погода в Puerto Suarez (Боливия) (335 км)

Пояснения к столбцам:

Ветер - указаны скорость ветра в м/с - средняя за 10 мин, порывы в срок и между сроками (в фигурных скобках) и направление, откуда дует ветер: С - северный, СВ - северо-восточный, В - восточный, ЮВ - юго-восточный, Ю - южный, ЮЗ - юго-западный, З - западный, СЗ - северо-западный.
Видимость - горизонтальная дальность видимости в метрах или километрах. При видимости от 1 до 10 км при отсутствии осадков обычно наблюдается дымка, при ухудшении видимости до 1 км и менее - туман. В сухую погоду видимость может ухудшаться дымом, пылью или мглою.
Явления - указаны атмосферные явления, наблюдавшиеся в срок или в последний час перед сроком; фигурными скобками обозначены явления, наблюдавшиеся между сроками (за 1-3 часа до срока); квадратными скобками обозначены град или гололедные отложения с указанием их диаметра в мм.
Облачность - указаны через наклонную черту общая и нижняя облачность в баллах и высота нижней границы облаков в метрах; квадратными скобками обозначены формы облаков: Ci - перистые, Cs - перисто-слоистые, Cc - перисто-кучевые, Ac - высококучевые, As - высокослоистые, Sc - слоисто-кучевые, Ns - слоисто-дождевые, Cu - кучевые, Cb - кучево-дождевые. Подробнее классификацию облаков см. в Атласе облаков (PDF).
T - Температура воздуха - температура, измеренная на высоте 2 м над землей.
Td - Температура точки росы - температура, при понижении до которой содержащийся в воздухе водяной пар достигнет насыщения.
f - Относительная влажность воздуха - влажноcть воздуха, измеренная на высоте 2 м над землей.
Te - Эффективная температура - температура, которую ощущает одетый по сезону человек в тени. Характеристика душности погоды. При расчете учитывается влияние влажности воздуха и скорости ветра на теплоощущения человека.
Tes - Эффективная температура на солнце - температура, которую ощущает человек, с поправкой на солнечный нагрев. Характеристика знойности погоды. Зависит от высоты солнца над горизонтом, облачности и скорости ветра. Ночью, в пасмурную погоду, а также при ветре 12 м/с и более поправка равна нулю.
P - Атмосферное давление - приведенное к уровню моря атмосферное давление.
Po - Атмосферное давление - измеренное на уровне метеостанции атмосферное давление.
Tmin - Минимальная температура - минимум температуры воздуха на высоте 2 м над землей.
Tmax - Максимальная температура - максимум температуры воздуха на высоте 2 м над землей.
R - Количество осадков - Количество выпавших осадков за период времени, мм. При наведении курсора мыши на число - период времени, за который выпало указанное количество осадков.
R24 - Количество осадков - Количество выпавших осадков за 24 часа, мм.
S - Снежный покров - Высота снежного покрова, см. При наведении курсора мыши на число - состояние снежного покрова и степень покрытия местности в баллах.